Buckland, AK

6:02 PM AKST on November 21, 2017 (GMT -0900)
Buckland

Weather History for PABL - June, 2013

Change the Weather History Date:

Thursday, June 13, 2013

  Actual Average (PASK) Record (PASK)
Temperature  
Mean Temperature 58 °F -  
Max Temperature 80 °F 56 °F 78 °F (2013)
Min Temperature 37 °F 40 °F 32 °F (2012)
Degree Days  
Heating Degree Days 6    
Growing Degree Days 8 (Base 50)    
Moisture  
Dew Point 38 °F    
Average Humidity 45    
Maximum Humidity 93    
Minimum Humidity 18    
Precipitation  
Precipitation 0.00 in - - ()
Sea Level Pressure  
Sea Level Pressure 30.05 in    
Wind  
Wind Speed 6 mph (SSE)    
Max Wind Speed 17 mph    
Max Gust Speed 25 mph    
Visibility 10 miles    
Events      
Averages and records for this station are not official NWS values.
T = Trace of Precipitation, MM = Missing Value Source: NWS Daily Summary

Daily Weather History Graph

Daily Weather History Graph

Search for Another Location

Airport or City:

Trip Planner

Search our weather history database for the weather conditions in past years. The results will help you decide how hot, cold, wet, or windy it might be!

Date:

Astronomy

Jun. 13, 2013 Rise Set
Actual Time 3:17 AM AKDT 2:12 AM AKDT
Civil Twilight Sun does not rise Sun does not rise
Nautical Twilight Sun does not rise Sun does not rise
Astronomical Twilight Sun does not rise Sun does not rise
Moon 11:01 AM AKDT (6/13) 2:06 AM AKDT (6/13)
Length of Visible Light 24h 00m
Length of Day
22h 55m
Waxing Crescent, 23% of the Moon is Illuminated
Jun 13
Waxing Crescent
Jun 16
First Quarter
Jun 23
Full
Jun 29
Last Quarter
Jul 7
New

Hourly Weather History & Observations

Time (AKDT) Temp. Windchill Dew Point Humidity Pressure Visibility Wind Dir Wind Speed Gust Speed Precip Events Conditions
12:16 AM 50.0 °F - 37.4 °F 62% 30.06 in 10.0 mi WNW 9.2 mph - N/A   Clear
12:36 AM 48.2 °F - 37.4 °F 66% 30.06 in 10.0 mi NW 9.2 mph - N/A   Clear
12:56 AM 48.2 °F - 39.2 °F 71% 30.06 in 10.0 mi NW 6.9 mph - N/A   Clear
1:16 AM 48.2 °F - 37.4 °F 66% 30.06 in 10.0 mi NNW 5.8 mph - N/A   Clear
1:36 AM 48.2 °F - 39.2 °F 71% 30.07 in 10.0 mi North 3.5 mph - N/A   Clear
2:16 AM 44.6 °F 40.7 °F 37.4 °F 76% 30.07 in 10.0 mi NNW 6.9 mph - N/A   Clear
2:36 AM 42.8 °F - 35.6 °F 76% 30.07 in 10.0 mi Calm Calm - N/A   Clear
2:56 AM 42.8 °F - 35.6 °F 76% 30.07 in 10.0 mi Calm Calm - N/A   Clear
3:16 AM 42.8 °F - 35.6 °F 76% 30.08 in 10.0 mi Calm Calm - N/A   Clear
3:36 AM 41.0 °F - 37.4 °F 87% 30.08 in 10.0 mi Calm Calm - N/A   Clear
3:56 AM 39.2 °F - 35.6 °F 87% 30.08 in 10.0 mi Calm Calm - N/A   Clear
4:16 AM 39.2 °F - 35.6 °F 87% 30.08 in 10.0 mi Calm Calm - N/A   Clear
4:36 AM 39.2 °F - 37.4 °F 93% 30.08 in 10.0 mi Calm Calm - N/A   Clear
4:56 AM 39.2 °F 37.0 °F 37.4 °F 93% 30.09 in 10.0 mi South 3.5 mph - N/A   Clear
5:16 AM 37.4 °F - 35.6 °F 93% 30.09 in 10.0 mi Calm Calm - N/A   Clear
5:36 AM 39.2 °F - 35.6 °F 87% 30.09 in 10.0 mi Calm Calm - N/A   Mostly Cloudy
5:56 AM 41.0 °F 39.0 °F 37.4 °F 87% 30.09 in 10.0 mi SSE 3.5 mph - N/A   Overcast
6:16 AM 42.8 °F 41.1 °F 37.4 °F 81% 30.09 in 10.0 mi SSE 3.5 mph - N/A   Mostly Cloudy
6:36 AM 42.8 °F 41.1 °F 37.4 °F 81% 30.08 in 10.0 mi SSE 3.5 mph - N/A   Partly Cloudy
6:56 AM 42.8 °F - 37.4 °F 81% 30.08 in 10.0 mi Calm Calm - N/A   Clear
7:16 AM 44.6 °F - 37.4 °F 76% 30.08 in 10.0 mi Calm Calm - N/A   Clear
7:36 AM 46.4 °F 45.2 °F 39.2 °F 76% 30.08 in 10.0 mi SE 3.5 mph - N/A   Clear
7:56 AM 48.2 °F - 39.2 °F 71% 30.09 in 10.0 mi SSE 3.5 mph - N/A   Clear
8:16 AM 51.8 °F - 39.2 °F 62% 30.09 in 10.0 mi Calm Calm - N/A   Clear
8:36 AM 53.6 °F - 39.2 °F 58% 30.09 in 10.0 mi SSE 4.6 mph - N/A   Clear
8:56 AM 53.6 °F - 39.2 °F 58% 30.09 in 10.0 mi South 3.5 mph - N/A   Clear
9:16 AM 57.2 °F - 42.8 °F 59% 30.08 in 10.0 mi South 3.5 mph - N/A   Clear
9:36 AM 60.8 °F - 42.8 °F 52% 30.08 in 7.0 mi SSE 8.1 mph - N/A   Clear
9:56 AM 62.6 °F - 44.6 °F 52% 30.08 in 10.0 mi SSE 6.9 mph - N/A   Clear
10:16 AM 64.4 °F - 44.6 °F 49% 30.08 in 10.0 mi SSE 8.1 mph - N/A   Clear
10:36 AM 64.4 °F - 44.6 °F 49% 30.08 in 10.0 mi SSE 5.8 mph - N/A   Clear
10:56 AM 66.2 °F - 44.6 °F 46% 30.08 in 9.0 mi SSE 6.9 mph - N/A   Clear
11:16 AM 68.0 °F - 44.6 °F 43% 30.08 in 10.0 mi SSE 6.9 mph - N/A   Clear
11:36 AM 71.6 °F - 44.6 °F 38% 30.07 in 10.0 mi SE 6.9 mph - N/A   Clear
11:56 AM 73.4 °F - 44.6 °F 36% 30.07 in 10.0 mi SSE 5.8 mph - N/A   Clear
12:16 PM 75.2 °F - 42.8 °F 31% 30.07 in 8.0 mi SSE 8.1 mph - N/A   Clear
12:36 PM 75.2 °F - 41.0 °F 29% 30.07 in 9.0 mi SSE 5.8 mph - N/A   Clear
12:56 PM 77.0 °F - 39.2 °F 26% 30.06 in 10.0 mi South 8.1 mph - N/A   Clear
1:16 PM 77.0 °F - 39.2 °F 26% 30.06 in 10.0 mi SSE 11.5 mph - N/A   Clear
1:36 PM 77.0 °F - 39.2 °F 26% 30.06 in 10.0 mi South 4.6 mph - N/A   Partly Cloudy
1:56 PM 78.8 °F - 33.8 °F 20% 30.06 in 10.0 mi SE 8.1 mph 18.4 mph N/A   Partly Cloudy
2:16 PM 78.8 °F - 35.6 °F 21% 30.05 in 10.0 mi SSE 11.5 mph 20.7 mph N/A   Clear
2:36 PM 78.8 °F - 35.6 °F 21% 30.05 in 10.0 mi ESE 17.3 mph 20.7 mph N/A   Clear
2:56 PM 78.8 °F - 35.6 °F 21% 30.05 in 10.0 mi SSE 15.0 mph 21.9 mph N/A   Clear
3:16 PM 80.6 °F - 35.6 °F 20% 30.04 in 9.0 mi SE 13.8 mph 20.7 mph N/A   Clear
3:36 PM 78.8 °F - 35.6 °F 21% 30.04 in 9.0 mi SSE 10.4 mph 19.6 mph N/A   Scattered Clouds
3:56 PM 80.6 °F - 35.6 °F 20% 30.03 in 10.0 mi SE 12.7 mph 25.3 mph N/A   Partly Cloudy
4:16 PM 80.6 °F - 35.6 °F 20% 30.03 in 10.0 mi SE 11.5 mph - N/A   Clear
4:36 PM 80.6 °F - 33.8 °F 18% 30.03 in 10.0 mi SE 12.7 mph 17.3 mph N/A   Partly Cloudy
4:56 PM 80.6 °F - 35.6 °F 20% 30.03 in 9.0 mi SE 11.5 mph 18.4 mph N/A   Clear
5:16 PM 80.6 °F - 33.8 °F 18% 30.03 in 10.0 mi SSE 12.7 mph 17.3 mph N/A   Clear
5:36 PM 80.6 °F - 33.8 °F 18% 30.03 in 10.0 mi SE 15.0 mph 20.7 mph N/A   Partly Cloudy
5:56 PM 78.8 °F - 33.8 °F 20% 30.02 in 10.0 mi SSE 8.1 mph 18.4 mph N/A   Clear
6:16 PM 80.6 °F - 33.8 °F 18% 30.02 in 10.0 mi SE 13.8 mph 18.4 mph N/A   Clear
6:36 PM 80.6 °F - 35.6 °F 20% 30.01 in 10.0 mi SSE 10.4 mph - N/A   Partly Cloudy
6:56 PM 80.6 °F - 33.8 °F 18% 30.01 in 10.0 mi SE 13.8 mph 17.3 mph N/A   Scattered Clouds
7:16 PM 80.6 °F - 33.8 °F 18% 30.00 in 10.0 mi SE 12.7 mph 16.1 mph N/A   Scattered Clouds
7:36 PM 80.6 °F - 33.8 °F 18% 30.00 in 10.0 mi ESE 6.9 mph - N/A   Mostly Cloudy
7:56 PM 80.6 °F - 33.8 °F 18% 30.00 in 10.0 mi South 9.2 mph - N/A   Mostly Cloudy
8:16 PM 80.6 °F - 35.6 °F 20% 30.00 in 10.0 mi SSE 12.7 mph 19.6 mph N/A   Mostly Cloudy
8:36 PM 80.6 °F - 35.6 °F 20% 30.00 in 10.0 mi East 6.9 mph - N/A   Mostly Cloudy
8:56 PM 78.8 °F - 33.8 °F 20% 30.00 in 10.0 mi SSW 6.9 mph - N/A   Mostly Cloudy
9:16 PM 75.2 °F - 37.4 °F 25% 30.00 in 10.0 mi SSW 3.5 mph - N/A   Scattered Clouds
9:36 PM 78.8 °F - 35.6 °F 21% 30.00 in 10.0 mi South 8.1 mph - N/A   Partly Cloudy
9:56 PM 78.8 °F - 35.6 °F 21% 30.00 in 10.0 mi South 8.1 mph - N/A   Partly Cloudy
10:16 PM 78.8 °F - 35.6 °F 21% 30.01 in 10.0 mi SSW 8.1 mph - N/A   Scattered Clouds
10:36 PM 75.2 °F - 37.4 °F 25% 30.01 in 10.0 mi SSW 6.9 mph - N/A   Clear
10:56 PM 75.2 °F - 39.2 °F 27% 30.01 in 10.0 mi SW 5.8 mph - N/A   Clear
11:16 PM 73.4 °F - 39.2 °F 29% 30.01 in 10.0 mi SW 4.6 mph - N/A   Clear
11:36 PM 71.6 °F - 41.0 °F 33% 30.01 in 10.0 mi SW 4.6 mph - N/A   Clear
11:56 PM 69.8 °F - 42.8 °F 38% 30.01 in 9.0 mi Calm Calm - N/A   Clear